Theta_e
307 312 316 320 320 315 319 319 318 320 319 317 316 326 327 321 330 336 315 315 314 318 321 333 338 338 338 337 336 335 334 333 335 333 333 334 335 335 333 332 330 330 330 329 327 328 326 327 324
312 319 320 315 314 320 318 319 320 318 318 317 323 323 321 320 316 314 313 314 314 317 315 319 332 336 338 338 336 335 333 333 333 333 333 332 333 335 334 332 329 330 330 328 327 329 325 324 323
318 320 317 315 313 316 317 317 317 317 315 317 319 316 317 317 314 313 312 313 313 314 315 315 317 325 333 336 336 335 334 332 332 331 332 332 332 333 335 332 330 331 329 327 329 326 325 323 323
318 316 310 318 320 318 316 315 314 315 315 312 316 318 313 311 312 311 312 312 312 313 315 314 314 315 316 330 334 335 335 334 330 331 331 331 331 330 331 333 330 330 328 326 328 324 324 323 323
318 312 316 315 316 315 314 314 314 314 313 313 313 316 314 311 311 311 311 311 312 313 312 312 313 313 314 315 326 332 334 335 333 329 329 330 330 329 329 330 329 328 327 327 328 323 323 322 322
314 310 316 318 316 314 313 312 313 312 312 313 312 316 312 310 310 310 310 311 310 311 311 311 312 312 312 312 313 315 326 332 334 332 328 328 328 328 329 329 329 328 328 328 325 323 322 322 321
316 310 312 314 316 314 314 312 313 312 313 313 312 314 311 309 310 310 310 310 310 310 310 310 311 311 312 312 312 312 314 321 329 333 330 329 328 329 328 328 330 327 327 329 324 322 322 322 321
309 308 312 311 314 315 313 313 312 313 313 311 311 313 312 309 309 309 309 309 309 308 308 308 308 309 309 310 311 311 312 312 317 318 327 329 329 329 329 328 329 326 327 325 324 322 321 321 318
309 310 309 313 312 314 313 314 312 311 311 312 311 310 309 309 309 309 308 308 307 306 306 307 307 307 307 308 309 310 310 311 312 315 318 329 329 329 329 330 326 325 324 325 324 322 322 321 314
310 309 313 314 313 314 313 312 313 313 312 312 312 308 309 308 308 307 306 306 306 306 306 306 306 307 307 307 308 308 309 309 310 312 315 318 329 328 330 330 326 324 323 325 323 322 321 321 313
311 312 313 315 314 313 313 314 313 313 313 310 311 308 307 306 306 306 306 306 305 305 305 305 305 305 306 306 307 307 307 307 309 310 313 317 321 328 329 329 325 325 324 325 323 322 322 320 313
314 313 314 314 313 314 314 312 312 311 311 308 307 308 307 305 305 306 305 306 305 305 304 304 304 305 305 306 306 306 306 306 307 308 309 311 318 325 328 328 326 324 326 324 323 322 321 321 315
313 313 314 313 313 313 313 312 311 311 309 307 307 307 305 305 306 306 306 306 305 305 305 305 304 304 305 305 305 305 305 306 306 306 308 309 312 320 321 325 326 324 325 323 323 322 321 321 316
313 313 314 313 313 313 314 312 311 310 307 307 308 305 304 305 306 306 305 305 305 305 305 305 303 304 304 304 304 304 305 305 305 305 306 308 310 317 323 326 326 324 324 323 322 322 321 320 319
313 315 314 313 313 313 310 309 311 309 307 308 308 304 304 303 305 305 305 305 305 305 305 303 302 304 303 303 303 304 305 304 304 304 305 307 309 312 319 326 327 324 323 323 323 322 321 321 320
314 313 313 314 313 312 308 309 309 307 307 308 307 304 304 304 304 305 302 303 304 304 303 302 303 304 303 303 303 303 304 304 304 304 304 306 308 311 317 324 323 323 324 323 323 322 321 321 320
312 311 314 314 312 313 311 308 308 307 307 308 307 304 304 303 303 301 301 301 301 300 301 304 305 303 303 303 303 303 304 304 304 304 304 305 307 308 313 322 324 322 323 323 323 322 320 321 319
317 314 312 311 312 311 311 312 310 309 307 307 306 304 303 304 302 301 300 300 299 300 304 304 305 303 303 303 303 304 304 304 305 305 305 305 306 308 312 320 324 323 323 323 322 321 320 320 319
312 312 312 311 312 311 311 311 310 308 308 307 306 305 303 302 301 300 300 299 299 302 303 305 303 302 302 303 303 303 304 304 304 305 306 306 307 308 313 321 324 322 319 320 322 321 320 319 319
312 312 310 310 311 310 309 310 310 308 307 308 308 305 303 303 301 300 300 299 299 301 303 304 302 302 302 302 302 303 305 305 305 305 306 308 308 309 313 323 323 320 322 322 321 321 319 320 319
312 310 309 309 309 309 308 308 307 312 310 308 307 306 304 303 300 299 299 298 299 301 302 302 302 302 302 302 304 307 309 308 306 308 307 308 311 313 317 322 323 322 322 322 321 320 319 318 319
310 312 310 311 309 307 307 310 303 310 311 310 308 305 303 300 299 299 298 298 299 300 302 304 302 301 302 302 304 306 309 311 311 312 313 311 313 315 320 322 321 321 321 322 321 321 319 319 320
309 309 309 310 310 311 308 305 308 308 309 310 308 306 303 299 298 298 297 298 299 300 301 303 301 301 301 302 303 305 307 310 314 317 317 315 316 318 320 322 321 321 322 321 321 321 319 320 320
308 310 310 309 309 307 305 307 310 305 309 307 308 307 301 298 298 297 297 298 299 300 302 303 301 300 301 301 304 303 306 308 313 315 316 317 318 320 321 322 321 321 321 322 321 321 320 321 320
309 308 309 309 310 310 311 309 311 307 311 307 307 306 299 298 296 296 296 296 299 300 301 302 301 300 300 300 303 302 304 306 309 311 312 314 315 316 320 321 322 322 322 321 321 320 319 318 316
308 307 310 310 314 311 308 311 309 306 307 308 306 302 298 297 296 295 295 296 298 299 300 302 301 299 300 300 301 302 301 303 305 308 310 310 311 313 316 317 317 318 317 315 315 315 315 314 314
309 310 307 308 301 307 306 304 304 307 307 305 303 299 298 297 295 295 295 297 299 299 300 301 302 299 300 299 300 301 300 301 303 306 308 306 308 314 313 313 313 312 313 311 312 307 311 312 312
307 305 306 304 304 308 308 308 307 308 307 305 303 299 297 296 295 293 294 296 299 299 300 302 303 299 300 300 299 299 300 299 301 303 304 304 305 308 310 308 310 310 312 312 313 310 309 308 306
307 308 308 305 308 311 309 308 302 305 306 305 303 301 298 295 294 293 293 296 298 299 299 300 303 302 301 302 301 300 301 300 298 301 301 301 302 303 304 306 308 308 306 308 309 303 301 301 297
304 307 307 309 308 306 309 308 304 306 305 303 303 303 300 295 293 292 293 296 298 298 299 299 302 302 302 301 303 301 302 304 301 297 298 301 302 302 303 305 306 307 306 304 302 300 297 297 295
Wind_Speed
4 2 5 4 3 4 2 2 2 4 2 2 4 2 7 4 3 1 7 13 16 14 15 12 9 8 10 12 12 10 11 12 13 14 14 14 13 13 13 12 14 14 13 11 10 10 9 10 9
3 3 2 2 4 3 4 2 3 1 2 1 6 2 6 3 3 2 3 13 15 12 14 14 11 11 10 12 13 13 12 13 13 14 15 15 15 15 14 14 15 14 12 12 11 14 10 8 9
2 2 3 4 3 3 4 3 1 1 4 2 3 7 3 1 2 2 9 11 12 10 12 15 15 13 12 11 11 15 15 14 15 15 15 16 16 15 15 16 16 14 12 13 13 14 12 10 10
2 3 4 4 4 3 5 3 2 2 2 6 3 6 4 5 2 5 9 11 13 10 10 13 15 16 17 14 10 10 16 16 17 17 17 17 17 17 17 18 18 16 14 12 14 13 12 14 11
1 3 3 2 3 2 1 2 1 2 3 4 4 4 4 2 5 8 10 11 13 12 12 15 16 16 16 15 13 12 12 15 18 18 18 19 19 18 18 20 21 17 17 15 16 13 14 16 14
3 2 4 3 4 3 2 3 1 3 2 1 4 5 3 2 6 10 9 10 13 14 15 15 14 13 15 18 19 19 16 16 16 19 21 20 20 20 22 23 23 19 19 17 18 14 15 15 14
5 3 3 4 5 4 3 1 2 3 0 0 3 6 4 2 11 11 10 11 11 12 15 16 16 16 17 17 17 19 19 19 18 20 21 22 22 22 23 25 24 23 22 21 18 16 16 13 14
4 3 3 3 5 5 2 2 3 2 3 2 2 3 3 3 9 8 10 11 12 16 19 19 19 20 20 19 19 19 19 20 23 22 18 23 24 24 25 27 25 24 23 22 19 16 16 12 13
3 2 3 3 4 3 1 3 3 1 2 2 2 3 2 4 6 10 12 12 17 19 17 14 18 21 21 20 18 18 19 20 21 24 22 16 26 25 25 29 27 26 25 23 21 17 16 12 12
4 3 5 1 0 2 2 2 4 1 2 1 2 1 3 5 10 11 10 11 15 19 19 20 19 19 22 22 21 20 20 22 22 21 19 19 15 27 29 29 26 27 25 25 20 17 16 12 13
3 4 3 1 1 1 3 1 2 3 4 5 5 4 2 5 7 6 6 8 12 16 19 24 24 21 20 23 22 22 22 22 23 22 18 15 17 28 32 31 29 28 25 25 22 19 17 13 14
2 1 2 3 1 1 2 2 3 6 5 7 7 4 2 3 2 2 4 8 12 16 20 23 27 27 22 22 24 26 26 23 23 22 22 18 19 20 35 32 33 32 31 28 25 23 19 15 14
1 2 3 3 3 2 1 4 5 7 6 7 5 4 5 3 1 3 5 9 13 19 23 25 28 28 25 25 24 27 26 24 23 22 19 19 18 13 20 31 33 35 34 30 27 24 21 16 15
1 3 3 4 3 2 3 3 2 4 7 7 4 7 6 5 5 5 7 10 13 18 22 26 29 28 28 29 26 26 23 23 23 22 20 18 19 15 16 35 39 35 31 28 28 25 22 15 17
2 1 3 4 3 2 1 6 9 3 6 7 6 7 7 7 7 7 7 9 12 17 21 27 30 30 29 29 26 24 21 23 25 25 22 19 19 21 15 30 38 36 35 34 27 24 21 17 16
1 2 3 1 5 1 3 9 3 8 8 9 7 7 7 6 6 3 4 7 13 16 21 26 30 30 26 26 25 24 23 23 22 23 21 19 20 21 21 21 33 41 34 34 30 25 22 18 19
4 2 3 5 7 2 4 8 4 7 8 9 8 7 7 6 3 1 4 8 14 18 22 28 30 27 27 28 27 24 23 21 20 19 20 20 22 22 22 16 32 37 36 35 29 25 22 21 17
3 2 4 5 2 3 6 18 10 8 9 10 8 7 7 6 4 1 5 11 14 18 23 28 29 25 28 29 26 24 22 19 18 19 19 18 21 22 23 12 25 36 28 27 28 27 19 19 16
2 2 3 3 1 3 7 16 19 10 9 11 9 8 7 7 4 1 7 12 15 19 26 29 29 24 27 27 24 19 14 18 19 17 16 15 18 18 24 14 33 35 28 30 30 31 24 20 18
2 1 4 5 2 3 5 21 15 8 8 10 13 8 8 5 4 2 8 12 15 20 26 29 28 27 27 25 26 17 20 18 17 15 16 13 15 14 19 23 34 33 28 27 30 29 30 21 26
2 4 3 4 6 3 8 9 5 3 1 4 4 4 5 7 5 2 6 11 15 20 26 26 25 26 27 27 25 21 18 12 11 10 12 12 11 12 11 27 31 30 28 28 30 32 24 24 27
2 3 3 1 4 3 5 5 6 4 6 2 6 7 7 7 3 2 5 10 14 18 23 25 25 25 25 23 23 22 16 14 9 8 4 8 8 13 14 20 26 28 26 28 31 31 28 23 19
3 4 3 1 1 3 4 3 8 5 5 6 8 8 6 6 5 4 5 7 11 15 22 23 24 24 23 22 20 21 20 21 10 2 3 5 8 8 21 24 23 22 26 28 30 29 27 25 20
5 3 4 4 2 2 3 4 6 3 5 3 4 8 8 7 6 5 5 6 10 15 21 23 24 23 22 22 19 25 21 21 15 16 13 10 8 14 15 22 22 22 25 26 27 27 26 24 21
2 3 2 4 2 4 2 1 10 6 6 5 7 8 8 7 6 5 5 5 9 14 19 21 23 22 22 22 20 22 19 20 21 23 22 21 18 15 17 18 20 21 20 23 21 24 22 20 24
5 5 4 5 2 3 2 6 6 3 5 4 5 7 7 7 6 6 6 2 6 11 15 20 21 21 21 20 20 22 23 21 24 27 26 25 27 22 22 19 19 18 20 24 27 33 34 29 28
4 4 2 5 2 3 3 7 7 3 2 3 7 6 8 7 6 7 7 4 3 8 12 16 18 19 19 19 20 23 24 24 25 28 28 27 27 24 26 26 27 28 29 33 37 30 36 34 32
3 3 3 2 2 4 5 5 6 5 8 7 7 9 8 6 6 5 6 8 3 6 10 14 16 16 18 19 21 23 24 24 25 30 30 28 29 29 30 31 35 39 39 38 38 37 34 34 33
3 2 1 2 4 4 2 6 6 5 7 11 11 10 9 8 8 6 6 9 6 6 8 11 16 16 20 22 23 24 25 26 24 30 31 29 32 32 36 39 41 40 40 40 40 35 33 33 31
3 6 6 4 5 2 1 7 5 4 5 8 10 11 8 7 9 7 10 11 9 7 7 9 13 15 19 21 23 25 27 29 30 29 29 33 36 35 36 37 37 36 35 35 35 34 32 31 29
Wind_Direction
324 301 316 27 63 65 275 281 31 20 42 285 295 49 114 61 64 227 189 9 1 359 355 347 345 282 270 260 248 239 232 225 222 219 216 210 194 181 177 178 174 165 163 164 162 162 164 155 172
20 57 40 71 97 94 269 279 93 31 221 37 89 68 46 64 34 96 48 351 355 347 353 350 336 331 308 277 258 252 241 234 232 227 220 220 212 194 184 181 181 174 169 165 165 165 177 183 173
57 39 93 110 114 169 195 217 196 214 356 60 84 51 60 5 24 49 343 342 348 350 352 352 353 339 331 312 273 262 256 245 235 231 227 224 222 211 188 186 183 179 179 174 164 169 163 173 173
21 32 18 99 211 209 183 203 240 148 7 32 111 74 63 32 89 347 348 352 351 1 8 357 348 350 348 327 315 281 262 259 250 237 231 225 221 218 206 194 186 179 178 177 174 179 178 164 177
62 66 53 50 265 127 197 223 342 78 76 354 359 156 127 37 44 11 6 7 24 38 14 3 353 343 338 336 315 298 274 259 253 243 237 229 223 222 215 202 193 185 176 177 175 183 175 180 181
41 102 61 239 237 164 237 289 77 65 353 342 78 113 162 95 6 11 14 15 14 8 357 344 343 339 337 336 330 329 299 276 249 247 238 230 227 218 215 206 196 188 182 178 175 180 182 188 181
110 79 213 233 197 169 209 12 91 105 106 290 140 140 187 353 8 14 20 13 2 0 353 352 344 332 327 325 333 332 320 301 281 242 238 234 222 216 211 205 199 191 186 187 181 182 186 192 182
95 93 251 234 192 213 209 110 146 147 205 160 97 170 182 283 14 18 7 4 4 354 345 337 335 326 321 316 318 319 315 309 290 296 268 231 230 218 210 201 195 192 190 186 185 185 193 200 194
81 68 248 235 181 185 158 157 334 347 109 80 66 98 165 0 12 9 10 9 3 358 359 345 337 335 330 322 316 314 308 306 304 302 302 260 229 222 209 195 191 192 191 188 191 187 195 205 200
99 144 234 278 88 159 151 168 182 136 18 161 185 99 357 34 27 23 13 4 4 1 359 357 344 332 325 320 315 315 309 303 298 303 309 289 243 225 203 198 195 192 191 190 193 192 199 206 195
168 207 178 266 139 91 186 167 210 152 239 210 202 262 313 41 36 24 7 7 4 2 5 4 352 333 320 318 316 313 313 307 298 298 307 312 281 241 212 198 194 192 194 190 189 189 193 203 196
199 164 154 187 284 287 211 290 259 197 231 170 201 211 129 72 29 343 351 351 349 356 355 355 354 346 331 317 312 309 310 308 303 296 295 297 291 262 209 203 194 187 193 192 191 193 197 197 197
197 195 118 182 193 223 267 254 246 235 197 197 206 149 149 163 241 298 322 334 344 346 346 348 343 343 336 328 318 312 307 302 302 299 290 285 283 292 234 224 205 189 194 193 191 195 192 194 189
270 176 190 207 236 252 241 257 17 258 183 208 206 188 188 194 229 276 309 328 339 337 340 338 337 333 329 327 316 313 305 302 297 301 285 281 269 283 263 210 204 192 191 196 194 193 193 193 184
125 325 287 232 207 238 93 268 232 198 180 207 227 202 209 213 228 271 318 317 326 328 334 338 332 329 324 323 319 309 288 289 285 291 291 273 265 255 271 199 189 192 192 196 196 196 196 188 185
35 57 330 253 158 190 71 272 280 184 178 221 231 222 228 227 233 286 338 335 337 327 331 330 329 334 327 317 308 299 287 284 282 280 283 274 265 248 249 227 197 189 195 193 194 190 192 191 181
5 244 230 309 203 126 182 271 277 187 203 231 237 229 226 243 191 194 2 1 354 343 340 333 337 335 327 319 309 299 291 284 281 277 275 266 261 251 245 255 192 183 183 190 188 192 190 182 173
209 240 251 249 225 213 263 263 256 219 215 229 231 235 225 228 199 162 14 4 354 348 348 342 341 336 330 321 312 304 290 291 287 279 268 260 254 247 237 245 180 164 173 178 186 184 175 176 162
162 224 263 273 290 272 237 270 276 226 224 230 226 229 222 204 173 58 15 7 354 357 352 344 344 337 334 322 314 302 296 294 283 275 268 255 250 245 225 210 172 172 179 196 187 175 167 178 164
119 97 280 283 223 248 308 289 283 254 232 212 206 212 210 177 186 20 13 8 359 357 350 347 344 342 338 325 318 304 313 302 285 275 256 257 243 239 220 179 164 174 177 175 176 173 168 185 176
149 166 226 242 324 277 322 292 337 318 335 185 186 179 186 180 172 36 15 6 360 360 348 346 347 348 343 340 339 345 335 309 285 275 245 237 246 226 218 189 184 176 179 182 182 176 171 170 187
221 172 162 339 31 271 28 280 308 322 319 203 189 182 176 154 137 91 30 8 1 356 350 354 353 353 352 351 349 354 335 298 277 268 246 227 200 193 185 184 176 172 170 181 188 184 182 171 171
207 141 133 93 38 6 340 64 271 347 311 240 212 208 189 166 156 106 50 10 1 0 353 354 355 360 358 360 3 3 346 349 341 214 171 137 171 179 181 179 167 177 184 186 183 183 177 183 168
133 94 46 49 67 3 245 128 286 233 220 283 210 210 181 169 164 117 71 16 3 8 2 3 5 4 5 4 15 11 13 8 33 70 81 103 138 158 172 177 180 185 191 196 186 177 185 183 174
106 86 339 346 10 225 164 67 247 255 242 220 203 196 182 178 173 125 80 17 2 17 9 10 12 8 16 8 33 24 26 35 49 63 70 88 85 101 132 163 165 171 185 181 182 174 165 155 144
176 166 164 219 225 278 90 236 252 219 295 207 163 169 168 187 179 138 121 66 14 27 19 23 20 13 28 21 39 43 33 46 66 80 86 92 103 105 111 118 120 138 140 125 126 128 119 117 116
183 193 170 106 31 36 230 280 295 168 99 113 148 168 200 196 191 158 139 119 40 47 36 36 35 27 43 33 36 59 44 50 69 89 101 94 100 114 121 121 118 121 125 125 121 111 119 120 116
154 161 78 357 142 268 278 273 245 230 220 195 191 205 211 204 197 170 160 143 125 77 62 53 57 41 55 59 49 57 62 50 71 88 90 94 102 113 113 118 119 119 118 119 116 116 116 119 118
142 206 135 123 160 183 296 263 212 223 198 205 203 202 199 196 195 183 186 155 150 112 83 64 69 65 68 67 69 71 79 77 63 88 97 94 100 102 110 115 117 119 119 120 124 123 123 120 119
187 188 168 149 213 224 162 272 212 234 263 209 197 196 193 183 188 180 184 173 164 142 121 89 82 74 76 74 75 75 78 83 82 77 88 102 106 106 108 112 112 111 111 118 120 121 120 120 119